Time,TemperatureF,DewpointF,PressureIn,WindDirection,WindDirectionDegrees,WindSpeedMPH,WindSpeedGustMPH,Humidity,HourlyPrecipIn,Conditions,Clouds,dailyrainin,SoftwareType,DateUTC
2013-04-23 00:01:00,45.2,32.6,30.44,NNE,23,1.1,4.7,61,0.00,,,0.00,WUHU216HW,2013-04-23 04:01:00,
2013-04-23 00:06:00,45.2,32.6,30.44,East,90,2.5,4.0,61,0.00,,,0.00,WUHU216HW,2013-04-23 04:06:00,
2013-04-23 00:11:00,45.0,32.4,30.44,ENE,68,3.4,5.4,61,0.00,,,0.00,WUHU216HW,2013-04-23 04:11:00,
2013-04-23 00:16:00,45.0,32.4,30.44,SE,135,6.3,6.3,61,0.00,,,0.00,WUHU216HW,2013-04-23 04:16:00,
2013-04-23 00:21:00,44.8,32.2,30.44,East,90,4.9,6.3,61,0.00,,,0.00,WUHU216HW,2013-04-23 04:21:00,
2013-04-23 00:26:00,44.8,32.2,30.44,NNE,23,3.4,8.7,61,0.00,,,0.00,WUHU216HW,2013-04-23 04:26:00,
2013-04-23 00:31:00,44.6,32.4,30.44,North,0,3.1,8.7,62,0.00,,,0.00,WUHU216HW,2013-04-23 04:31:00,
2013-04-23 00:36:00,44.6,32.4,30.44,North,0,2.2,6.7,62,0.00,,,0.00,WUHU216HW,2013-04-23 04:36:00,
2013-04-23 00:41:00,44.5,32.2,30.44,East,90,2.5,6.3,62,0.00,,,0.00,WUHU216HW,2013-04-23 04:41:00,
2013-04-23 00:46:00,44.5,32.2,30.43,ENE,68,4.0,5.8,62,0.00,,,0.00,WUHU216HW,2013-04-23 04:46:00,
2013-04-23 00:51:00,44.3,32.5,30.43,NNE,23,2.9,5.8,63,0.00,,,0.00,WUHU216HW,2013-04-23 04:51:00,
2013-04-23 00:56:00,44.3,32.5,30.43,ENE,68,3.8,5.4,63,0.00,,,0.00,WUHU216HW,2013-04-23 04:56:00,
2013-04-23 01:01:00,44.3,32.5,30.43,ESE,113,5.1,5.6,63,0.00,,,0.00,WUHU216HW,2013-04-23 05:01:00,
2013-04-23 01:06:00,44.3,32.5,30.43,ESE,113,4.3,5.6,63,0.00,,,0.00,WUHU216HW,2013-04-23 05:06:00,
2013-04-23 01:11:00,44.1,32.3,30.42,NNW,338,1.3,5.1,63,0.00,,,0.00,WUHU216HW,2013-04-23 05:11:00,
2013-04-23 01:16:00,44.1,32.3,30.42,NE,45,2.2,5.4,63,0.00,,,0.00,WUHU216HW,2013-04-23 05:16:00,
2013-04-23 01:21:00,43.9,32.1,30.42,East,90,1.6,5.4,63,0.00,,,0.00,WUHU216HW,2013-04-23 05:21:00,
2013-04-23 01:26:00,43.9,32.1,30.42,East,90,4.0,5.1,63,0.00,,,0.00,WUHU216HW,2013-04-23 05:26:00,
2013-04-23 01:31:00,43.7,32.0,30.42,ENE,68,2.0,7.2,63,0.00,,,0.00,WUHU216HW,2013-04-23 05:31:00,
2013-04-23 01:36:00,43.7,32.3,30.41,ESE,113,1.3,7.2,64,0.00,,,0.00,WUHU216HW,2013-04-23 05:36:00,
2013-04-23 01:41:00,43.6,32.1,30.41,ENE,68,2.2,5.1,64,0.00,,,0.00,WUHU216HW,2013-04-23 05:41:00,
2013-04-23 01:46:00,43.6,32.1,30.41,NE,45,4.7,5.8,64,0.00,,,0.00,WUHU216HW,2013-04-23 05:46:00,
2013-04-23 01:51:00,43.6,32.1,30.41,ENE,68,3.1,6.5,64,0.00,,,0.00,WUHU216HW,2013-04-23 05:51:00,
2013-04-23 01:56:00,43.6,32.1,30.41,ENE,68,5.8,6.5,64,0.00,,,0.00,WUHU216HW,2013-04-23 05:56:00,
2013-04-23 02:01:00,43.6,32.6,30.40,ENE,68,3.4,7.6,65,0.00,,,0.00,WUHU216HW,2013-04-23 06:01:00,
2013-04-23 02:06:00,43.6,32.6,30.40,East,90,5.1,7.6,65,0.00,,,0.00,WUHU216HW,2013-04-23 06:06:00,
2013-04-23 02:11:00,43.7,32.8,30.39,East,90,1.1,6.9,65,0.00,,,0.00,WUHU216HW,2013-04-23 06:11:00,
2013-04-23 02:16:00,43.7,32.8,30.39,ENE,68,1.1,5.1,65,0.00,,,0.00,WUHU216HW,2013-04-23 06:16:00,
2013-04-23 02:21:00,43.7,33.1,30.39,ENE,68,4.3,5.1,66,0.00,,,0.00,WUHU216HW,2013-04-23 06:21:00,
2013-04-23 02:26:00,43.7,32.8,30.39,East,90,2.5,5.1,65,0.00,,,0.00,WUHU216HW,2013-04-23 06:26:00,
2013-04-23 02:31:00,43.7,33.1,30.39,ENE,68,3.1,5.8,66,0.00,,,0.00,WUHU216HW,2013-04-23 06:31:00,
2013-04-23 02:36:00,43.7,33.1,30.39,NE,45,1.1,6.9,66,0.00,,,0.00,WUHU216HW,2013-04-23 06:36:00,
2013-04-23 02:41:00,43.7,33.1,30.38,ENE,68,4.3,6.9,66,0.00,,,0.00,WUHU216HW,2013-04-23 06:41:00,
2013-04-23 02:46:00,43.7,33.1,30.38,ESE,113,3.6,5.6,66,0.00,,,0.00,WUHU216HW,2013-04-23 06:46:00,
2013-04-23 02:51:00,43.7,33.1,30.38,NE,45,1.1,6.0,66,0.00,,,0.00,WUHU216HW,2013-04-23 06:51:00,
2013-04-23 02:56:00,43.7,33.1,30.38,NE,45,1.1,6.0,66,0.00,,,0.00,WUHU216HW,2013-04-23 06:56:00,
2013-04-23 03:01:00,43.7,33.5,30.38,North,0,3.4,4.0,67,0.00,,,0.00,WUHU216HW,2013-04-23 07:01:00,
2013-04-23 03:06:00,43.7,33.1,30.37,NE,45,0.9,5.6,66,0.00,,,0.00,WUHU216HW,2013-04-23 07:06:00,
2013-04-23 03:11:00,43.7,33.5,30.37,NE,45,1.1,5.6,67,0.00,,,0.00,WUHU216HW,2013-04-23 07:11:00,
2013-04-23 03:16:00,43.6,33.3,30.37,ENE,68,0.7,5.4,67,0.00,,,0.00,WUHU216HW,2013-04-23 07:16:00,
2013-04-23 03:21:00,43.6,33.3,30.37,NE,45,4.7,5.4,67,0.00,,,0.00,WUHU216HW,2013-04-23 07:21:00,
2013-04-23 03:26:00,43.6,33.3,30.37,ESE,113,4.0,5.6,67,0.00,,,0.00,WUHU216HW,2013-04-23 07:26:00,
2013-04-23 03:31:00,43.6,33.8,30.37,East,90,3.1,6.5,68,0.00,,,0.00,WUHU216HW,2013-04-23 07:31:00,
2013-04-23 03:36:00,43.6,33.8,30.37,NE,45,3.4,6.5,68,0.00,,,0.00,WUHU216HW,2013-04-23 07:36:00,
2013-04-23 03:41:00,43.6,33.3,30.37,ESE,113,3.1,5.4,67,0.00,,,0.00,WUHU216HW,2013-04-23 07:41:00,
2013-04-23 03:46:00,43.6,33.8,30.37,ENE,68,1.8,6.9,68,0.00,,,0.00,WUHU216HW,2013-04-23 07:46:00,
2013-04-23 03:51:00,43.4,33.6,30.36,East,90,1.6,6.9,68,0.00,,,0.00,WUHU216HW,2013-04-23 07:51:00,
2013-04-23 03:56:00,43.6,33.8,30.37,ENE,68,3.1,5.8,68,0.00,,,0.00,WUHU216HW,2013-04-23 07:56:00,
2013-04-23 04:01:00,43.6,33.8,30.36,NE,45,2.0,7.6,68,0.00,,,0.00,WUHU216HW,2013-04-23 08:01:00,
2013-04-23 04:06:00,43.4,33.6,30.36,ENE,68,5.4,7.6,68,0.00,,,0.00,WUHU216HW,2013-04-23 08:06:00,
2013-04-23 04:11:00,43.4,33.6,30.36,ENE,68,2.9,7.2,68,0.00,,,0.00,WUHU216HW,2013-04-23 08:11:00,
2013-04-23 04:16:00,43.4,33.6,30.36,NW,315,2.5,7.2,68,0.00,,,0.00,WUHU216HW,2013-04-23 08:16:00,
2013-04-23 04:21:00,43.4,33.6,30.36,East,90,4.9,6.3,68,0.00,,,0.00,WUHU216HW,2013-04-23 08:21:00,
2013-04-23 04:26:00,43.4,33.6,30.35,East,90,4.5,5.1,68,0.00,,,0.00,WUHU216HW,2013-04-23 08:26:00,
2013-04-23 04:31:00,43.2,33.4,30.35,NNE,23,1.8,7.6,68,0.00,,,0.00,WUHU216HW,2013-04-23 08:31:00,
2013-04-23 04:36:00,43.2,33.4,30.35,ENE,68,1.8,7.6,68,0.00,,,0.00,WUHU216HW,2013-04-23 08:36:00,
2013-04-23 04:41:00,43.2,33.4,30.35,NE,45,2.5,5.8,68,0.00,,,0.00,WUHU216HW,2013-04-23 08:41:00,
2013-04-23 04:46:00,43.2,33.4,30.35,ESE,113,2.9,4.3,68,0.00,,,0.00,WUHU216HW,2013-04-23 08:46:00,
2013-04-23 04:51:00,43.2,33.4,30.34,NE,45,1.3,4.7,68,0.00,,,0.00,WUHU216HW,2013-04-23 08:51:00,
2013-04-23 04:56:00,43.2,33.8,30.35,ESE,113,2.7,4.7,69,0.00,,,0.00,WUHU216HW,2013-04-23 08:56:00,
2013-04-23 05:01:00,43.2,33.4,30.34,ESE,113,3.1,4.7,68,0.00,,,0.00,WUHU216HW,2013-04-23 09:01:00,
2013-04-23 05:06:00,43.2,33.4,30.34,East,90,2.7,4.7,68,0.00,,,0.00,WUHU216HW,2013-04-23 09:06:00,
2013-04-23 05:11:00,43.0,33.2,30.34,NE,45,2.9,6.9,68,0.00,,,0.00,WUHU216HW,2013-04-23 09:11:00,
2013-04-23 05:16:00,43.0,33.2,30.34,North,0,5.4,6.9,68,0.00,,,0.00,WUHU216HW,2013-04-23 09:16:00,
2013-04-23 05:21:00,43.0,33.2,30.34,East,90,3.4,6.3,68,0.00,,,0.00,WUHU216HW,2013-04-23 09:21:00,
2013-04-23 05:26:00,43.0,33.2,30.34,ENE,68,2.9,6.3,68,0.00,,,0.00,WUHU216HW,2013-04-23 09:26:00,
2013-04-23 05:31:00,43.0,33.6,30.34,ENE,68,2.5,6.9,69,0.00,,,0.00,WUHU216HW,2013-04-23 09:31:00,
2013-04-23 05:36:00,43.0,33.6,30.34,NE,45,0.4,6.9,69,0.00,,,0.00,WUHU216HW,2013-04-23 09:36:00,
2013-04-23 05:41:00,43.2,33.8,30.34,ESE,113,2.2,5.4,69,0.00,,,0.00,WUHU216HW,2013-04-23 09:41:00,
2013-04-23 05:47:00,43.2,33.4,30.34,East,90,4.0,5.4,68,0.00,,,0.00,WUHU216HW,2013-04-23 09:47:00,
2013-04-23 05:52:00,43.0,33.6,30.34,ENE,68,2.2,4.7,69,0.00,,,0.00,WUHU216HW,2013-04-23 09:52:00,
2013-04-23 05:57:00,43.0,33.6,30.34,North,0,2.0,6.0,69,0.00,,,0.00,WUHU216HW,2013-04-23 09:57:00,
2013-04-23 06:02:00,43.0,33.6,30.34,NE,45,0.9,7.2,69,0.00,,,0.00,WUHU216HW,2013-04-23 10:02:00,
2013-04-23 06:07:00,42.8,33.5,30.34,NNW,338,1.1,7.2,69,0.00,,,0.00,WUHU216HW,2013-04-23 10:07:00,
2013-04-23 06:12:00,43.0,33.6,30.34,East,90,3.4,4.7,69,0.00,,,0.00,WUHU216HW,2013-04-23 10:12:00,
2013-04-23 06:17:00,43.0,33.6,30.33,East,90,1.3,4.7,69,0.00,,,0.00,WUHU216HW,2013-04-23 10:17:00,
2013-04-23 06:22:00,43.0,33.6,30.34,ENE,68,3.1,5.4,69,0.00,,,0.00,WUHU216HW,2013-04-23 10:22:00,
2013-04-23 06:27:00,43.0,33.6,30.34,ESE,113,4.0,5.4,69,0.00,,,0.00,WUHU216HW,2013-04-23 10:27:00,
2013-04-23 06:32:00,42.8,33.5,30.34,ENE,68,2.2,4.0,69,0.00,,,0.00,WUHU216HW,2013-04-23 10:32:00,
2013-04-23 06:37:00,43.0,33.6,30.34,SSE,158,1.6,4.5,69,0.00,,,0.00,WUHU216HW,2013-04-23 10:37:00,
2013-04-23 06:42:00,42.8,33.8,30.34,North,0,2.5,6.3,70,0.00,,,0.00,WUHU216HW,2013-04-23 10:42:00,
2013-04-23 06:47:00,42.8,33.8,30.33,NNE,23,1.8,6.3,70,0.00,,,0.00,WUHU216HW,2013-04-23 10:47:00,
2013-04-23 06:52:00,42.8,33.8,30.33,ENE,68,0.9,4.0,70,0.00,,,0.00,WUHU216HW,2013-04-23 10:52:00,
2013-04-23 06:57:00,43.0,34.0,30.33,NNE,23,1.6,4.7,70,0.00,,,0.00,WUHU216HW,2013-04-23 10:57:00,
2013-04-23 07:02:00,43.0,34.0,30.34,NE,45,5.6,5.6,70,0.00,,,0.00,WUHU216HW,2013-04-23 11:02:00,
2013-04-23 07:07:00,43.0,34.3,30.34,NNW,338,1.8,5.6,71,0.00,,,0.00,WUHU216HW,2013-04-23 11:07:00,
2013-04-23 07:12:00,43.0,34.3,30.34,NNW,338,3.1,6.3,71,0.00,,,0.00,WUHU216HW,2013-04-23 11:12:00,
2013-04-23 07:17:00,43.0,34.0,30.34,ENE,68,2.9,6.3,70,0.00,,,0.00,WUHU216HW,2013-04-23 11:17:00,
2013-04-23 07:22:00,43.0,34.3,30.34,NNE,23,3.6,5.4,71,0.00,,,0.00,WUHU216HW,2013-04-23 11:22:00,
2013-04-23 07:27:00,43.0,34.0,30.34,ENE,68,1.6,5.4,70,0.00,,,0.00,WUHU216HW,2013-04-23 11:27:00,
2013-04-23 07:32:00,43.2,34.2,30.33,NE,45,1.1,3.6,70,0.00,,,0.00,WUHU216HW,2013-04-23 11:32:00,
2013-04-23 07:37:00,43.2,34.5,30.33,ENE,68,4.9,4.9,71,0.00,,,0.00,WUHU216HW,2013-04-23 11:37:00,
2013-04-23 07:42:00,43.2,34.5,30.33,ENE,68,1.3,4.9,71,0.00,,,0.00,WUHU216HW,2013-04-23 11:42:00,
2013-04-23 07:47:00,43.2,34.2,30.33,NE,45,6.3,8.5,70,0.00,,,0.00,WUHU216HW,2013-04-23 11:47:00,
2013-04-23 07:52:00,43.0,34.3,30.33,NNW,338,1.3,8.5,71,0.00,,,0.00,WUHU216HW,2013-04-23 11:52:00,
2013-04-23 07:57:00,43.2,34.8,30.32,NNW,338,5.4,7.6,72,0.00,,,0.00,WUHU216HW,2013-04-23 11:57:00,
2013-04-23 08:02:00,43.0,34.3,30.32,East,90,3.6,7.6,71,0.00,,,0.00,WUHU216HW,2013-04-23 12:02:00,
2013-04-23 08:07:00,43.0,34.3,30.32,North,0,1.3,5.8,71,0.00,,,0.00,WUHU216HW,2013-04-23 12:07:00,
2013-04-23 08:12:00,43.2,34.5,30.32,North,0,1.1,5.8,71,0.00,,,0.00,WUHU216HW,2013-04-23 12:12:00,
2013-04-23 08:17:00,43.2,34.8,30.32,North,0,5.1,5.1,72,0.00,,,0.00,WUHU216HW,2013-04-23 12:17:00,
2013-04-23 08:22:00,43.2,34.5,30.32,East,90,4.7,5.6,71,0.00,,,0.00,WUHU216HW,2013-04-23 12:22:00,
2013-04-23 08:27:00,43.2,34.5,30.32,NNE,23,4.7,6.5,71,0.00,,,0.00,WUHU216HW,2013-04-23 12:27:00,
2013-04-23 08:32:00,43.2,34.8,30.32,East,90,1.1,6.9,72,0.00,,,0.00,WUHU216HW,2013-04-23 12:32:00,
2013-04-23 08:37:00,43.2,34.8,30.32,North,0,4.3,6.9,72,0.00,,,0.00,WUHU216HW,2013-04-23 12:37:00,
2013-04-23 08:42:00,43.2,34.8,30.31,NNE,23,2.2,7.2,72,0.00,,,0.00,WUHU216HW,2013-04-23 12:42:00,
2013-04-23 08:47:00,43.2,35.2,30.31,ESE,113,3.4,7.2,73,0.00,,,0.00,WUHU216HW,2013-04-23 12:47:00,
2013-04-23 08:52:00,43.4,35.0,30.31,North,0,2.5,6.7,72,0.00,,,0.00,WUHU216HW,2013-04-23 12:52:00,
2013-04-23 08:57:00,43.4,35.0,30.31,ENE,68,1.8,6.7,72,0.00,,,0.00,WUHU216HW,2013-04-23 12:57:00,
2013-04-23 09:02:00,43.2,34.8,30.31,ENE,68,0.9,6.9,72,0.00,,,0.00,WUHU216HW,2013-04-23 13:02:00,
2013-04-23 09:07:00,43.6,35.5,30.31,NE,45,1.8,6.9,73,0.00,,,0.00,WUHU216HW,2013-04-23 13:07:00,
2013-04-23 09:12:00,43.6,35.5,30.31,NNW,338,2.5,4.5,73,0.00,,,0.00,WUHU216HW,2013-04-23 13:12:00,
2013-04-23 09:17:00,43.6,35.2,30.31,ENE,68,1.8,4.5,72,0.00,,,0.00,WUHU216HW,2013-04-23 13:17:00,
2013-04-23 09:22:00,43.6,35.2,30.31,East,90,1.3,4.0,72,0.00,,,0.00,WUHU216HW,2013-04-23 13:22:00,
2013-04-23 09:27:00,43.9,35.8,30.31,ESE,113,1.8,4.0,73,0.00,,,0.00,WUHU216HW,2013-04-23 13:27:00,
2013-04-23 09:32:00,43.9,35.8,30.31,ENE,68,4.5,4.5,73,0.00,,,0.00,WUHU216HW,2013-04-23 13:32:00,
2013-04-23 09:37:00,44.1,36.0,30.31,ENE,68,2.5,5.6,73,0.00,,,0.00,WUHU216HW,2013-04-23 13:37:00,
2013-04-23 09:42:00,44.1,36.0,30.31,ENE,68,5.6,5.6,73,0.00,,,0.00,WUHU216HW,2013-04-23 13:42:00,
2013-04-23 09:47:00,44.1,36.4,30.31,NW,315,1.8,5.8,74,0.00,,,0.00,WUHU216HW,2013-04-23 13:47:00,
2013-04-23 09:52:00,44.3,36.2,30.30,East,90,3.4,5.8,73,0.00,,,0.00,WUHU216HW,2013-04-23 13:52:00,
2013-04-23 09:57:00,44.3,36.5,30.30,NNW,338,2.5,6.0,74,0.00,,,0.00,WUHU216HW,2013-04-23 13:57:00,
2013-04-23 10:02:00,44.1,36.4,30.30,ESE,113,1.6,6.3,74,0.00,,,0.00,WUHU216HW,2013-04-23 14:02:00,
2013-04-23 10:07:00,44.1,36.4,30.30,NNW,338,1.6,6.3,74,0.00,,,0.00,WUHU216HW,2013-04-23 14:07:00,
2013-04-23 10:12:00,44.3,36.5,30.29,NNE,23,2.2,5.4,74,0.00,,,0.00,WUHU216HW,2013-04-23 14:12:00,
2013-04-23 10:17:00,44.3,36.5,30.30,ESE,113,2.0,6.0,74,0.00,,,0.00,WUHU216HW,2013-04-23 14:17:00,
2013-04-23 10:22:00,44.3,37.5,30.29,North,0,2.0,6.0,77,0.00,,,0.00,WUHU216HW,2013-04-23 14:22:00,
2013-04-23 10:27:00,43.9,36.8,30.30,NNW,338,1.8,6.3,76,0.00,,,0.00,WUHU216HW,2013-04-23 14:27:00,
2013-04-23 10:32:00,43.7,36.6,30.30,East,90,5.1,6.3,76,0.00,,,0.00,WUHU216HW,2013-04-23 14:32:00,
2013-04-23 10:37:00,43.9,37.2,30.30,NE,45,1.8,5.1,77,0.00,,,0.00,WUHU216HW,2013-04-23 14:37:00,
2013-04-23 10:42:00,43.7,37.4,30.29,NE,45,1.8,5.1,78,0.00,,,0.00,WUHU216HW,2013-04-23 14:42:00,
2013-04-23 10:47:00,43.9,37.5,30.29,ENE,68,3.8,6.0,78,0.00,,,0.00,WUHU216HW,2013-04-23 14:47:00,
2013-04-23 10:52:00,43.9,37.2,30.29,North,0,2.9,6.0,77,0.00,,,0.00,WUHU216HW,2013-04-23 14:52:00,
2013-04-23 10:57:00,43.9,37.2,30.29,NE,45,1.6,4.9,77,0.00,,,0.00,WUHU216HW,2013-04-23 14:57:00,
2013-04-23 11:02:00,44.1,37.4,30.29,East,90,2.5,5.4,77,0.00,,,0.00,WUHU216HW,2013-04-23 15:02:00,
2013-04-23 11:07:00,44.1,37.4,30.29,ENE,68,1.1,5.4,77,0.00,,,0.00,WUHU216HW,2013-04-23 15:07:00,
2013-04-23 11:12:00,44.3,37.5,30.28,SE,135,2.7,6.3,77,0.00,,,0.00,WUHU216HW,2013-04-23 15:12:00,
2013-04-23 11:17:00,44.3,37.5,30.28,ESE,113,4.0,6.3,77,0.00,,,0.00,WUHU216HW,2013-04-23 15:17:00,
2013-04-23 11:22:00,44.3,37.5,30.28,SE,135,3.6,5.1,77,0.00,,,0.00,WUHU216HW,2013-04-23 15:22:00,
2013-04-23 11:27:00,44.5,37.7,30.28,NNW,338,3.8,4.7,77,0.00,,,0.00,WUHU216HW,2013-04-23 15:27:00,
2013-04-23 11:32:00,44.5,37.7,30.28,ENE,68,2.9,5.4,77,0.00,,,0.00,WUHU216HW,2013-04-23 15:32:00,
2013-04-23 11:37:00,44.6,37.9,30.27,NE,45,2.9,6.3,77,0.00,,,0.00,WUHU216HW,2013-04-23 15:37:00,
2013-04-23 11:42:00,45.0,37.9,30.27,North,0,3.1,6.3,76,0.00,,,0.00,WUHU216HW,2013-04-23 15:42:00,
2013-04-23 11:47:00,45.2,38.1,30.27,NE,45,4.7,6.0,76,0.00,,,0.00,WUHU216HW,2013-04-23 15:47:00,
2013-04-23 11:52:00,45.4,38.3,30.26,East,90,1.6,5.6,76,0.00,,,0.00,WUHU216HW,2013-04-23 15:52:00,
2013-04-23 11:57:00,45.5,38.4,30.26,NE,45,3.6,6.0,76,0.00,,,0.00,WUHU216HW,2013-04-23 15:57:00,
2013-04-23 12:02:00,45.7,38.6,30.26,NNW,338,0.9,6.7,76,0.00,,,0.00,WUHU216HW,2013-04-23 16:02:00,
2013-04-23 12:07:00,45.9,38.8,30.26,ESE,113,1.6,6.7,76,0.00,,,0.00,WUHU216HW,2013-04-23 16:07:00,
2013-04-23 12:12:00,45.9,38.8,30.26,East,90,3.6,6.0,76,0.00,,,0.00,WUHU216HW,2013-04-23 16:12:00,
2013-04-23 12:17:00,45.9,38.8,30.26,ENE,68,2.0,6.3,76,0.00,,,0.00,WUHU216HW,2013-04-23 16:17:00,
2013-04-23 12:22:00,46.1,38.6,30.26,NE,45,6.5,6.5,75,0.00,,,0.00,WUHU216HW,2013-04-23 16:22:00,
2013-04-23 12:27:00,45.9,38.8,30.25,North,0,4.0,7.4,76,0.00,,,0.00,WUHU216HW,2013-04-23 16:27:00,
2013-04-23 12:32:00,46.1,39.0,30.24,East,90,4.5,8.7,76,0.00,,,0.00,WUHU216HW,2013-04-23 16:32:00,
2013-04-23 12:37:00,46.1,39.0,30.24,ESE,113,2.5,8.7,76,0.00,,,0.00,WUHU216HW,2013-04-23 16:37:00,
2013-04-23 12:42:00,46.1,39.0,30.24,NNW,338,1.8,8.1,76,0.00,,,0.00,WUHU216HW,2013-04-23 16:42:00,
2013-04-23 12:47:00,46.3,39.5,30.24,North,0,3.4,4.7,77,0.00,,,0.00,WUHU216HW,2013-04-23 16:47:00,
2013-04-23 12:52:00,46.3,38.8,30.23,North,0,1.1,6.3,75,0.00,,,0.00,WUHU216HW,2013-04-23 16:52:00,
2013-04-23 12:57:00,46.4,39.3,30.23,East,90,2.5,6.3,76,0.00,,,0.00,WUHU216HW,2013-04-23 16:57:00,
2013-04-23 13:02:00,46.8,39.6,30.22,NE,45,2.0,6.3,76,0.00,,,0.00,WUHU216HW,2013-04-23 17:02:00,
2013-04-23 13:07:00,46.8,39.3,30.22,NE,45,4.0,8.9,75,0.00,,,0.00,WUHU216HW,2013-04-23 17:07:00,
2013-04-23 13:12:00,46.8,39.6,30.22,North,0,3.6,8.9,76,0.00,,,0.00,WUHU216HW,2013-04-23 17:12:00,
2013-04-23 13:17:00,47.2,40.0,30.22,WSW,248,4.0,5.6,76,0.00,,,0.00,WUHU216HW,2013-04-23 17:17:00,
2013-04-23 13:22:00,47.2,39.6,30.21,NNE,23,3.6,5.4,75,0.00,,,0.00,WUHU216HW,2013-04-23 17:22:00,
2013-04-23 13:27:00,47.5,40.0,30.21,North,0,4.7,5.1,75,0.00,,,0.00,WUHU216HW,2013-04-23 17:27:00,
2013-04-23 13:32:00,47.5,40.0,30.21,North,0,6.9,6.9,75,0.00,,,0.00,WUHU216HW,2013-04-23 17:32:00,
2013-04-23 13:37:00,47.7,39.8,30.21,ESE,113,2.2,6.9,74,0.00,,,0.00,WUHU216HW,2013-04-23 17:37:00,
2013-04-23 13:42:00,47.9,40.2,30.21,North,0,4.7,6.9,75,0.00,,,0.00,WUHU216HW,2013-04-23 17:42:00,
2013-04-23 13:47:00,47.9,40.2,30.21,NNW,338,0.9,4.7,75,0.00,,,0.00,WUHU216HW,2013-04-23 17:47:00,
2013-04-23 13:52:00,47.9,40.0,30.20,NNW,338,0.9,5.4,74,0.00,,,0.00,WUHU216HW,2013-04-23 17:52:00,
2013-04-23 13:57:00,47.9,40.0,30.20,West,270,2.7,5.4,74,0.00,,,0.00,WUHU216HW,2013-04-23 17:57:00,
2013-04-23 14:02:00,47.9,40.0,30.19,NE,45,4.0,7.4,74,0.00,,,0.00,WUHU216HW,2013-04-23 18:02:00,
2013-04-23 14:07:00,48.1,40.4,30.19,NNW,338,4.0,7.4,75,0.00,,,0.00,WUHU216HW,2013-04-23 18:07:00,
2013-04-23 14:12:00,48.4,40.4,30.19,SE,135,2.7,4.3,74,0.00,,,0.00,WUHU216HW,2013-04-23 18:12:00,
2013-04-23 14:17:00,48.6,40.6,30.19,ENE,68,3.4,5.1,74,0.00,,,0.00,WUHU216HW,2013-04-23 18:17:00,
2013-04-23 14:22:00,49.0,40.6,30.19,SSE,158,0.7,6.3,73,0.00,,,0.00,WUHU216HW,2013-04-23 18:22:00,
2013-04-23 14:27:00,49.1,40.5,30.18,North,0,3.4,6.3,72,0.00,,,0.00,WUHU216HW,2013-04-23 18:27:00,
2013-04-23 14:32:00,49.3,40.7,30.18,ENE,68,2.5,6.0,72,0.00,,,0.00,WUHU216HW,2013-04-23 18:32:00,
2013-04-23 14:37:00,49.3,40.7,30.18,ENE,68,3.4,6.0,72,0.00,,,0.00,WUHU216HW,2013-04-23 18:37:00,
2013-04-23 14:42:00,49.5,40.9,30.18,North,0,1.1,6.3,72,0.00,,,0.00,WUHU216HW,2013-04-23 18:42:00,
2013-04-23 14:47:00,49.5,40.9,30.18,North,0,3.8,6.3,72,0.00,,,0.00,WUHU216HW,2013-04-23 18:47:00,
2013-04-23 14:52:00,49.7,41.1,30.17,NE,45,1.8,5.4,72,0.00,,,0.00,WUHU216HW,2013-04-23 18:52:00,
2013-04-23 14:57:00,49.9,41.2,30.17,WNW,293,2.9,6.9,72,0.00,,,0.00,WUHU216HW,2013-04-23 18:57:00,
2013-04-23 15:02:00,49.7,41.1,30.17,North,0,1.1,6.9,72,0.00,,,0.00,WUHU216HW,2013-04-23 19:02:00,
2013-04-23 15:07:00,49.7,41.1,30.17,East,90,1.1,6.3,72,0.00,,,0.00,WUHU216HW,2013-04-23 19:07:00,
2013-04-23 15:12:00,49.7,41.1,30.17,ENE,68,3.4,6.3,72,0.00,,,0.00,WUHU216HW,2013-04-23 19:12:00,
2013-04-23 15:17:00,49.9,41.2,30.17,North,0,3.8,6.0,72,0.00,,,0.00,WUHU216HW,2013-04-23 19:17:00,
2013-04-23 15:22:00,49.9,41.2,30.17,ENE,68,1.3,6.0,72,0.00,,,0.00,WUHU216HW,2013-04-23 19:22:00,
2013-04-23 15:27:00,49.9,41.2,30.17,NNE,23,1.3,5.8,72,0.00,,,0.00,WUHU216HW,2013-04-23 19:27:00,
2013-04-23 15:32:00,50.0,41.4,30.17,ESE,113,4.9,7.2,72,0.00,,,0.00,WUHU216HW,2013-04-23 19:32:00,
2013-04-23 15:37:00,50.0,41.4,30.16,NE,45,2.5,7.2,72,0.00,,,0.00,WUHU216HW,2013-04-23 19:37:00,
2013-04-23 15:42:00,50.0,41.1,30.16,NNW,338,2.2,4.9,71,0.00,,,0.00,WUHU216HW,2013-04-23 19:42:00,
2013-04-23 15:47:00,50.0,41.1,30.16,East,90,1.3,6.0,71,0.00,,,0.00,WUHU216HW,2013-04-23 19:47:00,
2013-04-23 15:52:00,50.0,41.1,30.16,NNE,23,3.1,6.0,71,0.00,,,0.00,WUHU216HW,2013-04-23 19:52:00,
2013-04-23 15:57:00,50.2,41.6,30.16,SE,135,2.5,5.8,72,0.00,,,0.00,WUHU216HW,2013-04-23 19:57:00,
2013-04-23 16:02:00,50.4,41.4,30.16,ESE,113,2.5,5.4,71,0.00,,,0.00,WUHU216HW,2013-04-23 20:02:00,
2013-04-23 16:07:00,50.4,41.4,30.16,ESE,113,2.7,5.4,71,0.00,,,0.00,WUHU216HW,2013-04-23 20:07:00,
2013-04-23 16:12:00,50.2,41.2,30.16,ENE,68,4.7,5.4,71,0.00,,,0.00,WUHU216HW,2013-04-23 20:12:00,
2013-04-23 16:17:00,50.2,41.2,30.16,ESE,113,2.5,5.4,71,0.00,,,0.00,WUHU216HW,2013-04-23 20:17:00,
2013-04-23 16:22:00,50.4,41.4,30.16,SW,225,1.1,5.4,71,0.00,,,0.00,WUHU216HW,2013-04-23 20:22:00,
2013-04-23 16:27:00,50.2,41.2,30.16,East,90,2.0,4.9,71,0.00,,,0.00,WUHU216HW,2013-04-23 20:27:00,
2013-04-23 16:32:00,50.4,41.4,30.15,NNE,23,1.1,4.9,71,0.00,,,0.00,WUHU216HW,2013-04-23 20:32:00,
2013-04-23 16:37:00,50.4,41.0,30.15,North,0,2.7,6.3,70,0.00,,,0.00,WUHU216HW,2013-04-23 20:37:00,
2013-04-23 16:42:00,50.4,41.0,30.15,North,0,3.6,6.3,70,0.00,,,0.00,WUHU216HW,2013-04-23 20:42:00,
2013-04-23 16:47:00,50.4,41.4,30.15,NW,315,2.2,6.0,71,0.00,,,0.00,WUHU216HW,2013-04-23 20:47:00,
2013-04-23 16:52:00,50.4,41.0,30.15,NNW,338,3.4,4.7,70,0.00,,,0.00,WUHU216HW,2013-04-23 20:52:00,
2013-04-23 16:57:00,50.6,41.6,30.15,ESE,113,1.6,6.9,71,0.00,,,0.00,WUHU216HW,2013-04-23 20:57:00,
2013-04-23 17:02:00,50.6,41.6,30.15,NNE,23,0.9,6.9,71,0.00,,,0.00,WUHU216HW,2013-04-23 21:02:00,
2013-04-23 17:07:00,50.6,41.6,30.15,NNW,338,3.4,6.0,71,0.00,,,0.00,WUHU216HW,2013-04-23 21:07:00,
2013-04-23 17:12:00,50.8,41.4,30.15,NW,315,2.0,4.0,70,0.00,,,0.00,WUHU216HW,2013-04-23 21:12:00,
2013-04-23 17:17:00,50.9,41.6,30.15,North,0,2.0,6.7,70,0.00,,,0.00,WUHU216HW,2013-04-23 21:17:00,
2013-04-23 17:22:00,50.9,41.6,30.14,NNE,23,4.7,6.7,70,0.00,,,0.00,WUHU216HW,2013-04-23 21:22:00,
2013-04-23 17:27:00,50.9,41.6,30.14,NW,315,1.1,5.6,70,0.00,,,0.00,WUHU216HW,2013-04-23 21:27:00,
2013-04-23 17:32:00,51.1,41.8,30.14,NW,315,1.6,5.6,70,0.00,,,0.00,WUHU216HW,2013-04-23 21:32:00,
2013-04-23 17:37:00,51.3,41.5,30.14,East,90,2.0,4.0,69,0.00,,,0.00,WUHU216HW,2013-04-23 21:37:00,
2013-04-23 17:42:00,51.5,41.7,30.14,NE,45,1.1,4.0,69,0.00,,,0.00,WUHU216HW,2013-04-23 21:42:00,
2013-04-23 17:47:00,51.5,41.7,30.14,SW,225,1.8,3.4,69,0.00,,,0.00,WUHU216HW,2013-04-23 21:47:00,
2013-04-23 17:52:00,51.5,41.7,30.14,North,0,1.8,3.8,69,0.00,,,0.00,WUHU216HW,2013-04-23 21:52:00,
2013-04-23 17:57:00,51.5,41.3,30.13,West,270,2.5,4.7,68,0.00,,,0.00,WUHU216HW,2013-04-23 21:57:00,
2013-04-23 18:02:00,51.5,41.3,30.13,NNE,23,4.7,5.4,68,0.00,,,0.00,WUHU216HW,2013-04-23 22:02:00,
2013-04-23 18:07:00,51.5,41.3,30.13,NE,45,2.5,5.4,68,0.00,,,0.00,WUHU216HW,2013-04-23 22:07:00,
2013-04-23 18:12:00,51.5,41.3,30.13,NNW,338,1.3,5.4,68,0.00,,,0.00,WUHU216HW,2013-04-23 22:12:00,
2013-04-23 18:17:00,51.5,41.3,30.13,NNW,338,2.2,4.7,68,0.00,,,0.00,WUHU216HW,2013-04-23 22:17:00,
2013-04-23 18:22:00,51.5,41.3,30.13,NNW,338,1.3,5.8,68,0.00,,,0.00,WUHU216HW,2013-04-23 22:22:00,
2013-04-23 18:27:00,51.5,41.3,30.12,WNW,293,1.1,5.8,68,0.00,,,0.00,WUHU216HW,2013-04-23 22:27:00,
2013-04-23 18:32:00,51.5,41.3,30.12,NNW,338,2.5,4.9,68,0.00,,,0.00,WUHU216HW,2013-04-23 22:32:00,
2013-04-23 18:37:00,51.5,41.3,30.13,NNW,338,1.6,4.7,68,0.00,,,0.00,WUHU216HW,2013-04-23 22:37:00,
2013-04-23 18:42:00,51.5,41.3,30.12,NNE,23,0.4,5.4,68,0.00,,,0.00,WUHU216HW,2013-04-23 22:42:00,
2013-04-23 18:47:00,51.5,41.3,30.12,NNW,338,4.0,5.4,68,0.00,,,0.00,WUHU216HW,2013-04-23 22:47:00,
2013-04-23 18:52:00,51.5,41.3,30.11,North,0,0.7,6.9,68,0.00,,,0.00,WUHU216HW,2013-04-23 22:52:00,
2013-04-23 18:57:00,51.5,41.3,30.11,NNW,338,1.3,6.9,68,0.00,,,0.00,WUHU216HW,2013-04-23 22:57:00,
2013-04-23 19:02:00,51.5,41.3,30.11,NE,45,1.3,4.7,68,0.00,,,0.00,WUHU216HW,2013-04-23 23:02:00,
2013-04-23 19:07:00,51.5,41.3,30.10,NE,45,3.1,4.7,68,0.00,,,0.00,WUHU216HW,2013-04-23 23:07:00,
2013-04-23 19:12:00,51.3,41.1,30.10,NNE,23,1.1,4.7,68,0.00,,,0.00,WUHU216HW,2013-04-23 23:12:00,
2013-04-23 19:17:00,51.3,41.1,30.10,North,0,1.1,4.0,68,0.00,,,0.00,WUHU216HW,2013-04-23 23:17:00,
2013-04-23 19:22:00,51.1,41.0,30.11,ENE,68,0.9,2.9,68,0.00,,,0.00,WUHU216HW,2013-04-23 23:22:00,
2013-04-23 19:27:00,51.1,41.0,30.11,NNW,338,1.1,3.8,68,0.00,,,0.00,WUHU216HW,2013-04-23 23:27:00,
2013-04-23 19:32:00,51.1,41.0,30.11,NNW,338,0.9,3.8,68,0.00,,,0.00,WUHU216HW,2013-04-23 23:32:00,
2013-04-23 19:37:00,51.1,41.0,30.11,WSW,248,2.2,4.7,68,0.00,,,0.00,WUHU216HW,2013-04-23 23:37:00,
2013-04-23 19:42:00,50.9,40.8,30.11,NW,315,1.8,6.3,68,0.00,,,0.00,WUHU216HW,2013-04-23 23:42:00,
2013-04-23 19:47:00,50.9,40.8,30.11,NNW,338,1.8,6.3,68,0.00,,,0.00,WUHU216HW,2013-04-23 23:47:00,
2013-04-23 19:52:00,50.8,40.6,30.11,WNW,293,2.5,4.0,68,0.00,,,0.00,WUHU216HW,2013-04-23 23:52:00,
2013-04-23 19:57:00,50.8,40.6,30.11,NE,45,2.9,6.3,68,0.00,,,0.00,WUHU216HW,2013-04-23 23:57:00,
2013-04-23 20:02:00,50.8,40.6,30.11,NNW,338,0.4,6.3,68,0.00,,,0.00,WUHU216HW,2013-04-24 00:02:00,
2013-04-23 20:07:00,50.8,40.6,30.11,North,0,1.1,4.9,68,0.00,,,0.00,WUHU216HW,2013-04-24 00:07:00,
2013-04-23 20:12:00,50.8,40.6,30.10,NNW,338,3.6,4.3,68,0.00,,,0.00,WUHU216HW,2013-04-24 00:12:00,
2013-04-23 20:17:00,50.6,40.4,30.10,NNE,23,3.6,5.4,68,0.00,,,0.00,WUHU216HW,2013-04-24 00:17:00,
2013-04-23 20:22:00,50.6,40.4,30.10,NNW,338,3.8,5.4,68,0.00,,,0.00,WUHU216HW,2013-04-24 00:22:00,
2013-04-23 20:27:00,50.6,40.4,30.09,East,90,3.4,5.4,68,0.00,,,0.00,WUHU216HW,2013-04-24 00:27:00,
2013-04-23 20:32:00,50.4,40.7,30.09,NNE,23,1.8,4.7,69,0.00,,,0.00,WUHU216HW,2013-04-24 00:32:00,
2013-04-23 20:37:00,50.4,40.7,30.09,ENE,68,0.9,5.4,69,0.00,,,0.00,WUHU216HW,2013-04-24 00:37:00,
2013-04-23 20:42:00,50.4,40.7,30.08,NE,45,1.1,5.4,69,0.00,,,0.00,WUHU216HW,2013-04-24 00:42:00,
2013-04-23 20:47:00,50.4,40.7,30.08,NNW,338,2.5,5.4,69,0.00,,,0.00,WUHU216HW,2013-04-24 00:47:00,
2013-04-23 20:52:00,50.2,40.5,30.08,ENE,68,1.8,5.4,69,0.00,,,0.00,WUHU216HW,2013-04-24 00:52:00,
2013-04-23 20:57:00,50.0,40.3,30.08,NW,315,4.3,4.7,69,0.00,,,0.00,WUHU216HW,2013-04-24 00:57:00,
2013-04-23 21:02:00,49.9,40.2,30.08,North,0,2.5,4.7,69,0.00,,,0.00,WUHU216HW,2013-04-24 01:02:00,
2013-04-23 21:07:00,49.9,40.5,30.07,NE,45,2.9,4.7,70,0.00,,,0.00,WUHU216HW,2013-04-24 01:07:00,
2013-04-23 21:12:00,49.7,40.0,30.07,ENE,68,2.5,5.6,69,0.00,,,0.00,WUHU216HW,2013-04-24 01:12:00,
2013-04-23 21:17:00,49.5,39.8,30.07,NNW,338,2.2,5.6,69,0.00,,,0.00,WUHU216HW,2013-04-24 01:17:00,
2013-04-23 21:22:00,49.3,40.0,30.07,NE,45,1.8,5.6,70,0.00,,,0.00,WUHU216HW,2013-04-24 01:22:00,
2013-04-23 21:27:00,49.3,40.3,30.07,NW,315,3.1,3.4,71,0.00,,,0.00,WUHU216HW,2013-04-24 01:27:00,
2013-04-23 21:32:00,49.3,40.3,30.07,NNW,338,1.1,4.7,71,0.00,,,0.00,WUHU216HW,2013-04-24 01:32:00,
2013-04-23 21:37:00,49.1,40.2,30.08,NNW,338,6.3,6.3,71,0.00,,,0.00,WUHU216HW,2013-04-24 01:37:00,
2013-04-23 21:38:00,49.1,40.2,30.08,North,0,4.7,4.7,71,0.00,,,0.00,WUHU216HW,2013-04-24 01:38:00,
2013-04-23 21:42:00,49.1,40.2,30.08,North,0,4.7,6.3,71,0.00,,,0.00,WUHU216HW,2013-04-24 01:42:00,
2013-04-23 21:47:00,49.1,40.2,30.08,North,0,4.7,6.3,71,0.00,,,0.00,WUHU216HW,2013-04-24 01:47:00,